This is the latest recevied weather packets stored in our database for station/object CE4ERM-13. If no packets are shown the sender has not sent any weather packets the latest 10 day(s).
| Time | Temp. | Humidity | Pressure | Rain* | Wind** | Luminosity | Snow |
|---|---|---|---|---|---|---|---|
| 1777730644 | 16.67° C | 55% | 1017.7 hPa | - | - | - | - |
| 1777730291 | 21.67° C | 52% | 1018.8 hPa | - | - | - | - |
| 1777730044 | 16.67° C | 55% | 1018.1 hPa | - | - | - | - |
| 1777729444 | 16.67° C | 55% | 1018.8 hPa | - | - | - | - |
| 1777729090 | 20° C | 53% | 1018.3 hPa | - | - | - | - |
| 1777728843 | 16.67° C | 52% | 1019.7 hPa | - | - | - | - |
| 1777728490 | 20° C | 51% | 1018.5 hPa | - | - | - | - |
| 1777728244 | 16.67° C | 53% | 1022 hPa | - | - | - | - |
| 1777727889 | 20° C | 52% | 1019.6 hPa | - | - | - | - |
| 1777727643 | 16.11° C | 53% | 1017 hPa | - | - | - | - |
| 1777727044 | 16.11° C | 52% | 1019 hPa | - | - | - | - |
| 1777726444 | 16.11° C | 51% | 1019.2 hPa | - | - | - | - |
| 1777725844 | 15.56° C | 54% | 1014.3 hPa | - | - | - | - |
| 1777725487 | 17.78° C | 51% | 1019.8 hPa | - | - | - | - |
| 1777725242 | 16.11° C | 51% | 1021.3 hPa | - | - | - | - |
| 1777724887 | 17.78° C | 52% | 1019.6 hPa | - | - | - | - |
| 1777724641 | 15.56° C | 52% | 1017.6 hPa | - | - | - | - |
| 1777724287 | 17.78° C | 51% | 1018.6 hPa | - | - | - | - |
| 1777723687 | 17.22° C | 49% | 1016.5 hPa | - | - | - | - |
| 1777723442 | 16.11° C | 47% | 1019.9 hPa | - | - | - | - |
| 1777723087 | 17.22° C | 50% | 1018.4 hPa | - | - | - | - |
| 1777722377 | 16.11° C | 47% | 1019.5 hPa | - | - | - | - |
| 1777722241 | 16.11° C | 47% | 1019.5 hPa | - | - | - | - |
| 1777721886 | 17.22° C | 49% | 1019.3 hPa | - | - | - | - |
| 1777721773 | 15.56° C | 49% | 1020.8 hPa | - | - | - | - |
* Rain since midnight (hover to see other rain measurements)
** Current wind speed in m/s (hover to see current wind gust speed)